Location: Baia Mare
(47.6567°N, 23.5850°E)
Time: 16:51:24
(UTC+03:00)

ISS - Pass Details

Date: 31 October 2018
Orbit: 403 x 408 km, 51.6° (Epoch: 16 October)

Event Time Altitude Azimuth Distance (km) Brightness Sun altitude
Exits shadow 06:00:01 18° 252° (WSW) 1,085 -2.2 -11.9°
Maximum altitude 06:02:21 78° 337° (NNW) 418 -3.9 -11.5°
Drops below altitude 10° 06:05:38 10° 65° (ENE) 1,466 -0.1 -11.0°
Sets 06:07:44 0° 67° (ENE) 2,329 1.1 -10.6°
